TimeCST,TemperatureF,Dew PointF,Humidity,Sea Level PressureIn,VisibilityMPH,Wind Direction,Wind SpeedMPH,Gust SpeedMPH,PrecipitationIn,Events,Conditions,WindDirDegrees,DateUTC
12:55 AM,36.7,17.4,46,30.12,10.0,SE,9.2,-,N/A,,Clear,140,2013-02-18 06:55:00
1:55 AM,36.1,18.1,48,30.11,10.0,SSE,6.9,-,N/A,,Clear,150,2013-02-18 07:55:00
2:55 AM,37.0,19.6,49,30.10,10.0,SSE,5.8,-,N/A,,Clear,150,2013-02-18 08:55:00
3:55 AM,40.8,21.7,47,30.09,10.0,South,8.1,-,N/A,,Clear,170,2013-02-18 09:55:00
4:55 AM,40.5,22.6,49,30.11,10.0,South,9.2,-,N/A,,Clear,180,2013-02-18 10:55:00
5:55 AM,41.2,24.1,51,30.11,10.0,South,10.4,-,N/A,,Clear,170,2013-02-18 11:55:00
6:55 AM,41.2,26.4,56,30.12,10.0,South,9.2,-,N/A,,Clear,170,2013-02-18 12:55:00
7:55 AM,45.0,29.3,54,30.12,10.0,South,12.7,17.3,N/A,,Clear,180,2013-02-18 13:55:00
8:55 AM,50.0,33.4,53,30.11,10.0,SSW,15.0,-,N/A,,Clear,200,2013-02-18 14:55:00
9:55 AM,54.0,30.2,40,30.09,10.0,SSW,18.4,27.6,N/A,,Clear,200,2013-02-18 15:55:00
10:55 AM,56.1,30.7,38,30.06,10.0,SSW,19.6,27.6,N/A,,Clear,200,2013-02-18 16:55:00
11:55 AM,60.3,29.1,31,30.01,10.0,South,17.3,28.8,N/A,,Clear,190,2013-02-18 17:55:00
12:55 PM,63.1,28.2,27,29.96,10.0,South,17.3,26.5,N/A,,Clear,180,2013-02-18 18:55:00
1:55 PM,63.0,29.7,29,29.94,10.0,South,24.2,38.0,N/A,,Scattered Clouds,190,2013-02-18 19:55:00
2:55 PM,62.2,30.7,31,29.90,10.0,South,17.3,32.2,N/A,,Mostly Cloudy,190,2013-02-18 20:55:00
3:55 PM,60.8,32.5,35,29.86,10.0,South,20.7,28.8,N/A,,Mostly Cloudy,180,2013-02-18 21:55:00
4:38 PM,60.8,33.8,36,29.86,10.0,South,24.2,32.2,N/A,,Light Drizzle,190,2013-02-18 22:38:00
4:47 PM,59.0,33.8,39,29.86,10.0,SSW,15.0,34.5,N/A,,Mostly Cloudy,200,2013-02-18 22:47:00
4:55 PM,59.2,34.0,39,29.88,10.0,SSW,15.0,20.7,0.00,,Mostly Cloudy,200,2013-02-18 22:55:00
5:01 PM,59.0,33.8,39,29.87,10.0,South,17.3,21.9,N/A,,Light Drizzle,180,2013-02-18 23:01:00
5:07 PM,57.2,39.2,51,29.87,8.0,SSW,19.6,25.3,N/A,Rain,Light Rain,200,2013-02-18 23:07:00
5:17 PM,55.4,41.0,58,29.85,9.0,South,13.8,28.8,N/A,,Overcast,170,2013-02-18 23:17:00
5:21 PM,53.6,41.0,62,29.85,10.0,South,12.7,26.5,N/A,Rain,Light Rain,190,2013-02-18 23:21:00
5:55 PM,52.0,43.2,72,29.83,10.0,South,16.1,24.2,0.06,,Light Drizzle,170,2013-02-18 23:55:00
6:11 PM,51.8,42.8,71,29.81,10.0,SSE,16.1,23.0,N/A,,Mostly Cloudy,160,2013-02-19 00:11:00
6:49 PM,53.6,41.0,62,29.80,10.0,South,15.0,24.2,N/A,Rain,Light Rain,170,2013-02-19 00:49:00
6:55 PM,52.7,41.9,67,29.79,10.0,South,15.0,24.2,0.00,,Light Drizzle,170,2013-02-19 00:55:00
7:01 PM,51.8,41.0,67,29.79,10.0,SSE,13.8,23.0,N/A,,Overcast,160,2013-02-19 01:01:00
7:05 PM,53.6,41.0,62,29.79,10.0,South,12.7,23.0,N/A,,Light Drizzle,170,2013-02-19 01:05:00
7:14 PM,51.8,41.0,67,29.81,10.0,South,15.0,23.0,N/A,Rain,Light Rain,180,2013-02-19 01:14:00
7:27 PM,50.0,44.6,82,29.82,10.0,South,13.8,-,N/A,Rain,Light Rain,180,2013-02-19 01:27:00
7:36 PM,50.0,44.6,82,29.83,7.0,South,15.0,-,N/A,Rain,Rain,180,2013-02-19 01:36:00
7:43 PM,50.0,46.4,87,29.82,8.0,South,13.8,21.9,N/A,Rain,Rain,180,2013-02-19 01:43:00
7:55 PM,49.5,45.7,87,29.81,10.0,South,13.8,-,0.13,Rain,Light Rain,170,2013-02-19 01:55:00
8:34 PM,50.0,46.4,87,29.79,10.0,South,12.7,23.0,N/A,,Overcast,170,2013-02-19 02:34:00
8:41 PM,50.0,46.4,87,29.79,10.0,South,15.0,21.9,N/A,,Light Drizzle,170,2013-02-19 02:41:00
8:53 PM,48.2,46.4,93,29.78,10.0,South,17.3,27.6,N/A,,Overcast,170,2013-02-19 02:53:00
8:55 PM,48.9,47.1,93,29.78,10.0,South,17.3,27.6,0.05,,Overcast,170,2013-02-19 02:55:00
9:02 PM,48.2,46.4,93,29.79,10.0,South,18.4,27.6,N/A,,Light Drizzle,170,2013-02-19 03:02:00
9:13 PM,48.2,48.2,100,29.79,10.0,South,15.0,29.9,N/A,,Overcast,170,2013-02-19 03:13:00
9:14 PM,48.2,48.2,100,29.79,10.0,South,15.0,29.9,N/A,Rain,Light Rain,170,2013-02-19 03:14:00
9:16 PM,48.2,48.2,100,29.79,10.0,South,12.7,29.9,N/A,,Overcast,180,2013-02-19 03:16:00
9:29 PM,48.2,48.2,100,29.79,10.0,South,17.3,27.6,N/A,Rain,Light Rain,180,2013-02-19 03:29:00
9:39 PM,48.2,48.2,100,29.81,10.0,South,15.0,26.5,N/A,Rain,Light Rain,180,2013-02-19 03:39:00
9:55 PM,48.4,48.2,99,29.88,3.0,WSW,27.6,-,0.13,Rain,Rain,250,2013-02-19 03:55:00
9:57 PM,48.2,48.2,100,29.88,2.0,West,24.2,28.8,N/A,Rain,Rain,260,2013-02-19 03:57:00
10:00 PM,48.2,48.2,100,29.87,1.8,WSW,18.4,28.8,N/A,Rain,Rain,250,2013-02-19 04:00:00
10:01 PM,48.2,48.2,100,29.87,1.8,WSW,17.3,28.8,N/A,Rain,Rain,250,2013-02-19 04:01:00
10:03 PM,48.2,48.2,100,29.87,2.0,WSW,16.1,-,N/A,Rain,Rain,250,2013-02-19 04:03:00
10:05 PM,48.2,48.2,100,29.87,2.5,WSW,15.0,-,N/A,Rain,Rain,250,2013-02-19 04:05:00
10:06 PM,48.2,48.2,100,29.87,4.0,WSW,15.0,-,N/A,Rain,Light Rain,240,2013-02-19 04:06:00
10:16 PM,48.2,48.2,100,29.87,6.0,SW,13.8,-,N/A,Rain,Light Rain,230,2013-02-19 04:16:00
10:25 PM,48.2,48.2,100,29.88,7.0,WSW,18.4,-,N/A,Rain,Light Rain,240,2013-02-19 04:25:00
10:28 PM,48.2,48.2,100,29.87,6.0,SW,19.6,24.2,N/A,Rain,Rain,230,2013-02-19 04:28:00
10:40 PM,48.2,48.2,100,29.83,8.0,South,12.7,-,N/A,,Overcast,170,2013-02-19 04:40:00
10:42 PM,48.2,48.2,100,29.83,9.0,South,12.7,-,N/A,,Overcast,170,2013-02-19 04:42:00
10:45 PM,48.2,48.2,100,29.83,10.0,SSE,12.7,-,N/A,,Light Drizzle,160,2013-02-19 04:45:00
10:55 PM,47.1,47.1,100,29.78,10.0,SSE,13.8,-,0.14,,Light Drizzle,150,2013-02-19 04:55:00
11:02 PM,46.4,46.4,100,29.81,10.0,South,13.8,-,N/A,,Mostly Cloudy,180,2013-02-19 05:02:00
11:55 PM,48.6,48.6,100,29.83,10.0,South,13.8,-,0.00,,Overcast,180,2013-02-19 05:55:00